Weather History for Brookings, OR

Change the Weather History Date:

Tuesday, January 7, 2014

  Actual Average Record
Temperature  
Mean Temperature 48 °F -  
Max Temperature 52 °F 54 °F 71 °F (1943)
Min Temperature 45 °F 40 °F 25 °F (1937)
Degree Days  
Heating Degree Days 16    
Moisture  
Dew Point 43 °F    
Average Humidity 85    
Maximum Humidity 100    
Minimum Humidity 50    
Precipitation  
Precipitation 0.62 in - - ()
Sea Level Pressure  
Sea Level Pressure 30.16 in    
Wind  
Wind Speed 6 mph (SE)    
Max Wind Speed 12 mph    
Max Gust Speed 18 mph    
Visibility 4 miles    
Events Fog , Rain    
Averages and records for this station are not official NWS values.
T = Trace of Precipitation, MM = Missing Value Source: NWS Daily Summary

Daily Weather History Graph

Daily Weather History Graph

Search for Another Location

Airport:

Trip Planner

Search our weather history database for the weather conditions in past years. The results will help you decide how hot, cold, wet, or windy it might be!

Date:

Astronomy

Jan. 07, 2014 Rise Set
Actual Time 7:45 AM PST 5:02 PM PST
Civil Twilight 7:13 AM PST 5:33 PM PST
Nautical Twilight 6:39 AM PST 6:08 PM PST
Astronomical Twilight 6:05 AM PST 6:42 PM PST
Moon 11:29 AM PST (1/7) No Moon Set
Length of Visible Light 10h 19m
Length of Day
9h 16m
Waxing Crescent, 46% of the Moon is Illuminated
Jan 7
Waxing Crescent
Jan 7
First Quarter
Jan 15
Full
Jan 23
Last Quarter
Jan 30
New

Hourly Weather History & Observations

Time (PST) Temp. Windchill Dew Point Humidity Pressure Visibility Wind Dir Wind Speed Gust Speed Precip Events Conditions
12:56 AM 48.9 °F - 38.8 °F 68% 30.14 in 10.0 mi Variable 3.5 mph - N/A   Overcast
1:56 AM 48.9 °F - 39.9 °F 71% 30.16 in 10.0 mi East 3.5 mph - N/A   Overcast
2:56 AM 50.0 °F - 37.9 °F 63% 30.18 in 10.0 mi ESE 3.5 mph - N/A   Mostly Cloudy
3:56 AM 50.0 °F - 36.9 °F 61% 30.16 in 10.0 mi Variable 3.5 mph - N/A   Mostly Cloudy
4:56 AM 47.8 °F - 37.9 °F 69% 30.14 in 10.0 mi Variable 3.5 mph - N/A   Partly Cloudy
5:56 AM 50.0 °F - 36.0 °F 59% 30.13 in 10.0 mi East 5.8 mph - N/A   Overcast
6:56 AM 50.9 °F - 37.9 °F 61% 30.14 in 10.0 mi ESE 4.6 mph - N/A   Overcast
7:56 AM 52.0 °F - 34.0 °F 50% 30.14 in 9.0 mi ESE 5.8 mph - 0.00 in Rain Light Rain
8:56 AM 50.0 °F - 37.9 °F 63% 30.16 in 9.0 mi ESE 4.6 mph - 0.00 in   Overcast
9:56 AM 50.9 °F - 37.9 °F 61% 30.17 in 9.0 mi Variable 4.6 mph - N/A   Overcast
10:56 AM 52.0 °F - 36.9 °F 56% 30.18 in 10.0 mi Variable 5.8 mph - N/A   Overcast
11:56 AM 50.9 °F - 37.9 °F 61% 30.17 in 9.0 mi SE 6.9 mph - 0.01 in   Overcast
12:06 PM 51.8 °F - 37.4 °F 58% 30.16 in 6.0 mi SSE 4.6 mph - 0.00 in Rain Light Rain
12:13 PM 51.8 °F - 39.2 °F 62% 30.15 in 8.0 mi SSE 11.5 mph - 0.00 in   Overcast
12:26 PM 50.0 °F - 41.0 °F 71% 30.16 in 2.5 mi South 11.5 mph 16.1 mph 0.00 in Rain Light Rain
12:30 PM 48.2 °F - 41.0 °F 76% 30.16 in 2.5 mi SSE 8.1 mph 16.1 mph 0.00 in Rain Light Rain
12:43 PM 48.2 °F - 42.8 °F 82% 30.15 in 1.2 mi ESE 4.6 mph - 0.01 in Rain Light Rain
12:56 PM 46.9 °F - 43.0 °F 86% 30.16 in 1.2 mi SSE 8.1 mph 18.4 mph 0.02 in Rain Light Rain
1:02 PM 46.4 °F 43.5 °F 42.8 °F 87% 30.14 in 0.8 mi ESE 5.8 mph 18.4 mph 0.03 in Rain Rain
1:56 PM 45.9 °F 41.7 °F 45.0 °F 97% 30.14 in 0.5 mi SSE 8.1 mph - 0.19 in Fog , Rain Rain
2:13 PM 46.4 °F 43.5 °F 44.6 °F 93% 30.14 in 0.5 mi ESE 5.8 mph - 0.08 in Fog , Rain Rain
2:32 PM 46.4 °F 42.4 °F 44.6 °F 93% 30.14 in 0.8 mi East 8.1 mph - 0.16 in Rain Heavy Rain
2:56 PM 45.9 °F 42.9 °F 45.0 °F 97% 30.15 in 0.8 mi Variable 5.8 mph - 0.21 in Rain Light Rain
3:22 PM 46.4 °F 42.9 °F 44.6 °F 93% 30.15 in 1.2 mi SE 6.9 mph - 0.02 in Rain Light Rain
3:31 PM 46.4 °F 43.5 °F 44.6 °F 93% 30.15 in 0.8 mi Variable 5.8 mph - 0.03 in Rain Light Rain
3:56 PM 46.9 °F - 45.9 °F 96% 30.16 in 1.0 mi Variable 5.8 mph - 0.05 in Rain Light Rain
4:13 PM 46.4 °F 42.9 °F 46.4 °F 100% 30.15 in 1.5 mi Variable 6.9 mph - 0.00 in Rain Light Rain
4:24 PM 46.4 °F 44.3 °F 46.4 °F 100% 30.15 in 1.0 mi SE 4.6 mph - 0.01 in Rain Light Rain
4:43 PM 46.4 °F 42.9 °F 46.4 °F 100% 30.15 in 1.5 mi Variable 6.9 mph - 0.01 in Rain Light Rain
4:56 PM 46.9 °F - 45.9 °F 96% 30.16 in 1.5 mi Variable 5.8 mph - 0.02 in Rain Light Rain
5:06 PM 46.4 °F 43.5 °F 46.4 °F 100% 30.15 in 3.0 mi ESE 5.8 mph - 0.00 in   Overcast
5:56 PM 47.8 °F - 46.9 °F 97% 30.15 in 4.0 mi SE 6.9 mph - 0.00 in   Overcast
6:56 PM 47.8 °F - 47.8 °F 100% 30.16 in 9.0 mi SE 5.8 mph - N/A   Overcast
7:56 PM 48.9 °F - 47.8 °F 96% 30.16 in 9.0 mi SE 8.1 mph - N/A   Overcast
8:27 PM 48.2 °F - 48.2 °F 100% 30.16 in 1.8 mi SE 5.8 mph - 0.01 in Rain Light Rain
8:36 PM 48.2 °F - 48.2 °F 100% 30.16 in 1.2 mi SE 5.8 mph - 0.02 in Rain Light Rain
8:56 PM 48.9 °F - 47.8 °F 96% 30.18 in 1.5 mi SSE 4.6 mph - 0.04 in Rain Light Rain
9:10 PM 48.2 °F - 48.2 °F 100% 30.18 in 1.2 mi SE 4.6 mph - 0.02 in Rain Light Rain
9:26 PM 48.2 °F - 48.2 °F 100% 30.18 in 1.5 mi SSE 5.8 mph - 0.04 in Rain Light Rain
9:42 PM 48.2 °F - 48.2 °F 100% 30.18 in 1.0 mi SE 8.1 mph - 0.05 in Rain Light Rain
9:49 PM 48.2 °F - 48.2 °F 100% 30.18 in 0.5 mi SSE 6.9 mph - 0.05 in Fog , Rain Light Rain
9:56 PM 48.9 °F - 47.8 °F 96% 30.19 in 0.2 mi SSE 8.1 mph - 0.05 in Fog , Rain Light Rain
10:19 PM 48.2 °F - 48.2 °F 100% 30.19 in 0.2 mi SE 6.9 mph - 0.02 in Fog , Rain Light Rain
10:56 PM 48.9 °F - 48.9 °F 100% 30.19 in 0.2 mi SE 9.2 mph - 0.02 in Fog Fog
11:56 PM 48.9 °F - 48.9 °F 100% 30.17 in 0.2 mi SE 8.1 mph - 0.01 in Fog , Rain Light Rain